Location: Newark
(48.0000°N, 67.0000°E)
Time: 20:28:16
(UTC+00:00)

ISS - Visible Passes

Search period start: 22 January 2020 00:00
Search period end: 01 February 2020 00:00
Orbit: 415 x 421 km, 51.6° (Epoch: 23 January)

Date Brightness Start Highest point End Pass type
(mag) Time Alt. Az. Time Alt. Az. Time Alt. Az.
22 Jan -2.9 14:19:47 10° SW 14:22:26 41° S 14:22:26 41° S visible
23 Jan -2.7 13:32:06 10° SSW 13:35:08 32° SE 13:36:34 22° E visible
23 Jan -1.0 15:08:25 10° W 15:09:30 19° W 15:09:30 19° W visible
24 Jan -3.8 14:20:21 10° WSW 14:23:34 79° WNW 14:23:34 79° WNW visible
25 Jan -3.7 13:32:20 10° WSW 13:35:41 70° SSE 13:37:35 24° ENE visible
25 Jan -1.0 15:09:20 10° W 15:10:31 19° WNW 15:10:31 19° WNW visible
26 Jan -3.3 14:21:10 10° W 14:24:29 52° NNW 14:24:29 52° NNW visible
27 Jan -3.6 13:33:00 10° W 13:36:21 65° NNW 13:38:24 22° ENE visible
27 Jan -1.0 15:10:13 10° WNW 15:11:20 19° WNW 15:11:20 19° WNW visible
28 Jan -3.0 14:22:02 10° WNW 14:25:14 43° N 14:25:14 43° N visible
29 Jan -3.2 13:33:50 10° W 13:37:07 46° N 13:39:07 20° ENE visible
29 Jan -1.1 15:10:55 10° WNW 15:12:03 19° WNW 15:12:03 19° WNW visible
30 Jan -3.2 14:22:47 10° WNW 14:25:57 45° N 14:25:57 45° N visible
31 Jan -3.1 13:34:37 10° WNW 13:37:52 42° N 13:39:51 20° ENE visible
31 Jan -1.2 15:11:30 10° WNW 15:12:47 21° WNW 15:12:47 21° WNW visible
